Location: Wald
(31.7579°N, 86.6655°W)
Time: 20:23:34
(UTC+00:00)

USA 238 - Pass Details

Date: 14 July 2020
Orbit: 1009 x 1203 km, 63.4° (Epoch: 11 August)

Event Time Altitude Azimuth Distance (km) Brightness Sun altitude
Exits shadow 08:20:53 37° 158° (SSE) 1,525 4.2 -25.9°
Maximum altitude 08:22:53 48° 114° (ESE) 1,309 4.2 -25.7°
Drops below altitude 10° 08:29:16 10° 42° (NE) 2,860 7.0 -24.8°
Sets 08:32:01 0° 37° (NE) 3,843 8.0 -24.4°
